RH
36 32 34 38 34 36 44 34 25 16 17 13 15 18 16 15 21 26 26 26 26 28 28 30 32 34 36 38 40 40 44 45 46 49 51 51 52 54 54 56 57 56 55 54
37 34 38 42 33 31 31 33 30 26 27 20 22 22 21 21 23 24 26 27 27 28 32 33 33 36 37 38 38 41 43 44 46 50 51 51 54 56 57 56 56 57 58 59
46 41 41 40 31 30 32 28 29 33 24 24 26 29 28 31 30 29 28 27 28 31 33 35 36 39 39 38 39 42 46 49 49 51 52 53 56 57 57 56 56 58 60 60
58 54 64 36 34 35 32 32 30 32 31 30 31 33 33 30 31 31 33 33 34 35 37 39 41 40 38 40 42 44 49 50 51 53 54 56 57 58 57 57 58 58 59 60
58 47 35 29 42 40 39 32 31 33 32 34 36 36 37 36 34 36 36 36 38 40 41 42 42 40 42 43 42 45 47 50 52 55 57 57 57 56 57 59 60 61 60 61
54 66 54 37 33 30 34 43 38 38 39 39 38 40 42 39 37 37 38 41 43 43 44 44 40 42 45 46 46 49 50 56 57 59 60 60 59 60 62 66 64 63 63 61
60 61 46 34 35 35 53 47 36 37 41 42 45 43 41 38 38 38 41 44 45 46 44 44 46 48 49 48 48 48 50 52 52 55 62 62 61 67 72 72 70 67 65 64
54 61 68 40 42 45 44 40 41 43 44 46 44 44 44 44 46 45 43 46 48 50 48 46 44 45 44 41 40 41 44 46 47 44 46 57 65 75 80 77 70 67 64 62
42 42 42 39 40 38 41 44 44 45 43 44 46 51 50 51 51 50 48 46 48 47 45 43 42 41 42 41 40 41 42 42 41 40 40 43 55 69 79 74 68 66 65 62
46 34 34 35 36 36 46 52 49 46 47 51 57 60 67 71 72 59 55 51 50 49 46 45 43 41 41 42 44 45 44 41 40 42 43 45 46 52 67 75 72 68 69 69
46 38 34 33 34 49 53 49 49 49 51 56 62 63 64 64 61 60 61 58 60 58 53 48 44 42 42 43 48 48 46 43 40 39 41 43 44 49 55 61 67 74 78 81
54 38 44 49 46 49 55 55 56 59 59 57 65 65 63 60 59 58 56 54 54 55 52 46 42 39 39 40 45 44 44 44 42 43 45 46 47 48 50 55 61 64 67 78
54 53 52 48 47 63 67 64 63 65 60 58 56 54 54 57 56 56 55 54 49 46 45 47 47 43 41 41 44 47 47 46 47 47 47 50 51 54 58 56 57 58 60 66
50 56 49 56 59 60 61 58 51 46 41 38 38 41 40 40 41 41 41 41 41 46 46 44 44 44 42 40 43 46 49 48 50 51 54 59 58 58 61 62 62 61 62 67
57 59 55 52 57 58 50 42 42 34 28 28 27 27 28 29 30 32 34 35 36 41 44 41 38 39 40 43 46 49 51 52 53 53 55 58 62 69 72 72 70 69 69 72
57 57 57 60 52 42 38 35 36 32 28 27 26 26 28 31 33 35 36 38 39 41 42 42 41 42 43 46 51 54 55 54 55 58 63 65 66 68 70 71 72 72 72 72
65 60 53 50 45 37 34 33 31 32 32 30 28 29 32 34 36 38 37 36 37 37 41 46 49 49 51 54 56 56 58 60 60 62 66 67 69 70 71 73 76 78 78 76
51 35 38 42 46 41 36 33 34 35 36 36 32 34 40 41 41 39 39 40 42 42 43 45 47 48 52 54 57 62 67 70 71 72 73 75 76 76 78 81 81 82 80 82
53 52 51 52 50 49 50 50 51 51 50 50 44 40 42 46 44 43 44 46 45 45 43 41 42 48 54 58 61 69 74 74 73 73 74 75 78 81 83 84 83 83 83 82
57 57 59 59 60 60 56 51 48 50 49 47 45 46 47 45 43 44 46 46 46 45 45 49 54 59 62 63 66 71 75 76 76 78 80 81 82 82 84 89 94 98 96 95
54 56 57 59 52 43 44 45 45 45 44 44 47 48 47 45 47 50 52 52 49 48 50 56 60 64 66 69 73 75 76 77 80 81 85 91 93 94 92 93 93 96 98 98
36 37 39 39 37 39 42 43 45 47 48 50 52 53 51 52 53 54 55 58 57 59 64 68 70 70 71 74 79 82 85 83 81 83 82 87 89 89 91 91 93 97 99 99
35 38 40 42 42 43 44 46 47 48 50 51 52 52 53 53 54 56 58 51 56 60 63 67 69 73 79 82 85 87 85 83 83 83 84 86 87 90 93 93 95 99 99 99
40 42 45 47 50 52 54 51 50 50 50 50 52 54 56 57 56 54 56 59 63 68 72 74 76 79 82 86 88 90 90 90 86 86 89 91 90 91 95 96 99 99 99 99
47 51 54 57 59 58 56 56 57 58 57 58 57 56 58 62 64 62 64 65 66 68 72 74 76 80 84 88 88 89 88 88 89 92 91 92 91 92 96 96 99 100 99 99
58 56 54 53 54 54 53 54 55 54 54 53 54 56 58 59 60 63 66 69 73 75 77 79 81 83 85 87 89 91 92 94 96 92 94 91 92 93 97 99 99 99 99 98
57 55 55 54 53 52 53 55 57 59 60 61 61 62 63 64 66 69 71 73 74 76 78 79 81 84 88 94 96 95 96 97 97 96 96 97 96 98 97 98 97 98 98 97
Wind_Speed
7 7 5 8 10 9 13 11 7 7 13 14 16 15 13 8 8 9 11 9 7 8 8 7 6 4 4 6 8 10 11 12 13 13 12 13 14 16 16 16 16 17 18 18
5 2 6 12 14 15 16 17 17 17 22 10 1 7 7 7 9 10 11 11 11 8 8 7 5 4 6 8 9 10 12 13 12 12 13 13 14 15 15 16 15 15 16 16
4 1 8 12 9 12 9 9 12 14 10 9 11 10 8 7 8 9 8 9 5 7 7 3 3 5 7 9 10 11 12 13 13 13 14 15 15 14 14 14 13 14 15 15
4 3 4 3 5 2 6 10 11 15 15 13 13 11 10 8 8 6 2 1 3 3 3 3 5 7 9 10 11 11 12 11 11 12 14 14 15 17 17 15 14 13 12 14
3 5 12 12 1 1 3 2 3 3 4 3 3 5 2 4 4 5 5 4 3 3 5 7 8 9 10 11 11 11 12 11 11 12 14 15 15 16 16 17 16 16 14 14
3 4 5 4 4 2 1 5 5 3 2 3 6 6 4 1 1 4 4 4 5 7 8 9 10 10 11 13 12 13 12 12 12 13 14 15 16 16 15 15 16 16 16 15
9 6 7 2 6 3 4 3 2 3 3 4 6 4 5 6 8 10 9 9 8 9 11 11 10 10 12 13 14 13 13 14 15 15 15 16 16 15 15 15 15 14 14 14
5 6 7 5 6 4 4 3 5 6 6 8 8 8 8 9 11 15 14 13 12 12 12 10 9 9 12 14 13 13 13 15 16 16 17 17 17 17 15 14 15 15 13 13
5 1 4 1 5 3 5 7 9 11 12 14 13 11 12 12 12 15 19 16 14 12 14 12 11 10 13 14 14 14 15 16 16 16 16 17 17 17 16 16 14 15 13 13
10 4 10 5 4 6 3 7 9 9 10 10 12 13 12 13 14 16 17 15 15 13 14 14 12 12 13 14 14 14 16 17 16 16 16 16 15 16 15 16 16 16 15 14
16 16 18 16 9 6 7 11 11 10 10 9 9 11 11 11 13 17 16 15 13 13 15 15 14 14 13 13 13 14 15 16 17 16 15 16 16 15 16 19 18 18 19 17
14 16 12 9 8 8 9 8 7 9 10 11 11 11 13 11 15 15 15 14 12 12 14 15 14 14 15 13 12 14 15 16 16 17 17 17 17 19 17 21 23 22 24 24
10 8 8 11 8 2 5 7 9 9 11 10 12 13 13 14 15 16 16 15 15 15 15 15 15 16 16 15 14 15 17 18 17 17 17 17 16 17 18 22 20 22 22 23
3 4 8 1 5 5 7 8 8 10 10 9 11 12 13 15 17 17 17 17 16 16 18 18 18 19 17 16 16 19 19 21 20 20 18 18 18 19 19 20 20 22 19 21
4 3 5 6 5 6 8 8 8 9 10 11 13 15 16 17 17 19 21 22 20 20 21 20 18 20 19 18 19 21 21 21 19 20 20 21 22 22 22 21 22 22 22 20
4 4 4 6 7 8 9 10 11 11 10 13 13 15 16 17 19 21 23 23 19 20 24 23 21 24 22 22 22 21 21 21 20 21 21 21 21 21 22 21 22 22 21 22
6 5 8 9 10 12 12 12 13 12 16 16 18 18 17 18 21 22 25 26 23 24 26 26 27 26 24 22 20 20 20 21 21 22 22 22 22 22 22 22 22 22 24 24
10 7 6 9 10 11 12 16 17 20 20 22 22 21 21 21 21 25 27 28 26 25 26 28 26 26 24 22 22 21 20 20 20 21 22 22 22 22 22 22 23 23 25 26
11 12 15 16 16 16 17 19 22 25 27 26 24 23 25 27 26 27 27 24 24 23 29 24 25 23 22 22 22 21 21 21 21 21 21 23 23 22 22 23 23 24 24 24
14 16 18 19 20 19 20 24 25 25 26 24 24 23 24 27 26 26 25 25 27 29 30 30 27 24 22 23 21 20 20 21 21 21 21 21 21 22 22 22 21 22 22 22
14 16 17 16 19 24 25 24 23 24 26 25 23 24 25 28 26 26 23 18 31 27 25 25 24 23 22 20 20 19 20 21 21 21 22 21 22 23 23 23 23 23 23 23
15 14 17 22 24 24 25 26 25 25 26 25 26 27 25 25 26 26 24 24 31 29 26 25 23 21 21 21 22 22 22 22 22 23 23 22 22 22 22 23 23 23 23 22
19 20 22 23 23 25 27 27 28 27 25 26 26 24 23 24 24 19 13 25 23 22 22 22 23 25 25 25 23 23 24 23 23 23 23 23 23 22 21 23 25 24 22 21
21 22 24 25 25 24 18 29 28 27 27 28 27 25 24 23 27 23 25 26 26 26 26 26 25 26 25 24 23 24 24 24 23 22 22 22 22 21 21 24 25 23 22 22
24 25 25 24 21 19 24 26 25 25 26 25 24 25 25 24 25 29 22 23 25 26 26 24 24 24 23 22 22 21 20 21 21 20 20 20 21 22 22 22 23 23 22 21
23 21 22 24 24 25 25 24 21 23 23 22 22 23 22 21 23 25 24 23 24 25 25 24 22 21 20 21 21 21 20 21 20 19 20 22 23 24 24 24 23 22 22 23
22 23 21 21 22 23 23 23 22 21 22 23 22 23 22 21 22 24 24 24 23 24 24 24 22 21 21 21 21 22 21 22 21 21 22 23 24 23 23 23 23 23 23 23
Wind_Direction
280 264 248 252 265 224 223 245 257 280 313 310 320 315 296 308 302 255 244 236 248 239 222 216 231 251 282 306 311 311 309 307 307 308 307 308 311 312 309 308 305 305 304 301
284 338 288 278 266 251 245 248 257 270 277 294 23 336 322 294 297 279 267 258 246 230 226 223 245 288 311 309 309 309 304 302 303 307 310 311 311 311 310 311 311 309 307 305
242 18 324 286 321 231 237 260 252 245 268 339 319 325 315 320 303 297 292 281 243 215 222 240 275 302 303 306 304 300 298 301 305 310 312 312 310 307 306 307 307 309 308 306
288 265 239 150 171 166 223 248 243 263 291 327 331 327 312 300 308 321 349 141 162 198 232 271 295 297 301 303 301 297 297 299 303 307 308 309 310 308 309 308 305 303 301 302
267 265 308 275 148 186 206 298 43 305 349 3 314 290 136 22 358 23 10 11 353 320 310 304 301 302 298 296 294 293 294 298 302 304 303 304 304 306 307 307 307 305 304 302
167 255 257 56 130 150 135 255 60 28 352 316 312 289 61 129 284 307 295 287 294 297 294 289 293 294 291 293 294 291 293 296 299 296 296 296 298 300 299 298 299 302 303 303
233 251 272 13 145 165 241 47 33 339 325 298 303 329 333 309 300 303 292 284 280 285 286 291 293 292 289 292 292 299 299 299 298 296 293 288 290 289 291 293 293 295 301 305
219 230 266 119 134 252 37 6 348 340 320 292 283 286 289 303 310 312 299 282 277 287 291 292 288 285 285 290 299 299 298 296 297 300 298 293 291 292 291 290 290 294 299 303
230 279 37 84 332 16 338 310 312 315 313 306 284 289 291 298 307 307 305 296 293 286 285 287 290 288 289 294 302 301 299 297 298 298 298 297 292 289 290 285 278 284 292 302
294 258 282 316 290 261 344 325 320 317 316 311 299 306 321 322 309 298 295 301 302 297 291 294 299 302 295 298 297 297 295 297 300 299 296 298 293 288 281 282 286 286 289 296
269 275 276 283 297 3 325 316 321 323 318 321 320 308 304 304 302 303 295 296 299 295 297 293 297 295 298 297 294 294 294 295 296 292 291 292 287 281 279 274 275 282 281 288
266 280 314 284 337 350 323 328 326 320 316 315 312 303 308 305 307 308 303 304 294 291 294 293 296 299 302 300 292 292 293 295 293 296 293 292 291 291 285 279 283 281 279 277
282 344 313 307 325 331 311 316 308 306 309 314 320 321 322 314 314 314 308 302 295 296 299 295 291 294 297 298 290 283 279 281 285 286 283 284 285 284 288 292 286 283 283 283
302 290 286 65 303 301 290 294 296 298 295 296 301 303 306 309 310 307 302 301 300 294 289 290 289 288 292 289 283 278 280 283 281 277 279 280 279 280 280 282 287 289 282 277
206 230 280 293 281 277 276 280 285 284 290 295 304 306 305 303 302 300 298 297 295 287 283 284 283 283 285 284 281 281 281 280 280 278 277 277 278 276 275 276 277 279 287 283
218 233 236 246 259 266 263 263 261 271 280 287 293 296 302 302 299 296 295 292 288 283 284 286 284 280 286 284 283 283 281 279 279 279 279 279 278 276 277 277 279 280 280 278
198 227 235 248 253 262 265 266 269 277 282 284 282 284 286 291 294 291 292 292 288 284 281 280 278 283 282 283 282 279 277 277 279 282 279 278 277 276 277 278 276 275 275 278
225 260 275 275 289 292 292 290 287 284 282 284 285 285 287 291 288 291 294 294 292 285 277 276 280 279 279 276 275 274 272 273 277 277 279 279 278 277 277 277 277 278 281 282
235 251 262 271 275 276 279 281 282 282 283 283 283 277 282 286 286 287 288 286 281 278 279 286 284 289 283 279 275 271 269 272 276 277 279 280 281 280 280 279 280 281 283 284
257 261 264 266 272 272 274 277 283 285 284 284 283 281 280 281 284 285 285 279 277 277 284 285 288 285 283 283 281 272 268 269 272 276 281 282 283 285 285 284 284 284 283 281
260 265 269 275 277 281 282 285 285 281 282 282 279 277 277 282 285 283 284 282 284 287 288 288 285 282 281 279 280 274 270 270 269 272 274 271 274 274 275 271 272 270 271 272
286 288 285 280 280 283 286 287 284 282 281 282 278 276 278 278 279 278 273 268 280 286 285 282 281 281 279 281 279 274 272 271 274 273 274 271 271 273 276 280 278 274 267 267
287 283 284 282 280 283 287 285 283 280 279 274 272 275 274 272 273 276 279 281 278 279 282 281 280 282 284 283 280 276 275 275 274 272 273 276 278 279 281 283 282 277 273 272
286 282 279 281 283 281 279 279 281 282 276 271 271 270 269 274 277 273 272 278 279 277 276 279 282 284 286 281 279 275 273 273 275 276 277 279 281 283 284 284 281 278 277 274
282 285 286 282 278 275 277 280 281 277 274 271 272 274 272 267 262 279 280 280 282 284 284 283 284 286 284 278 277 277 278 278 278 278 279 281 283 285 286 287 284 283 282 278
279 279 279 278 276 279 281 284 280 281 283 284 284 285 283 280 280 283 285 282 279 281 283 283 282 281 279 278 280 279 276 276 275 278 280 284 286 285 284 285 283 285 288 289
284 284 284 285 284 284 284 285 285 284 283 283 285 288 287 287 284 283 283 281 279 280 281 281 282 281 280 279 280 280 278 275 275 280 284 283 284 283 284 284 287 287 287 289